Flag for U.S.A. Weather past 2 weeks in Naples, Florida, U.S.A.

Now
80 °F

Sunny.


Feels Like: 84 °F
Forecast: 75 / 87 °F
Wind: No wind

Location: Naples Municipal

Current Time: Sep 17, 2014 at 10:02:40 AM

Latest Report: Sep 17, 2014 at 8:53 AM


Visibility: 10 mi

Pressure: 29.97 "Hg

Humidity: 79%

Dew point: 73 °F

Location of NaplesLocation

Historic Weather in Naples — Graph

°F

Naples temperature yesterday

Maximum temperature yesterday: 90 °F (at 11:53 AM)
Minimum temperature yesterday: 77 °F (at 5:53 AM)
Average temperature yesterday: 82 °F

Past Weeks' High & Low Weather Summary

 TemperatureHumidityPressure
High93 °F (Sep 15, 2:53 PM)100% (Sep 9, 8:53 PM)30.15 "Hg (Sep 9, 8:53 PM)
Low73 °F (Sep 3, 3:53 AM)46% (Sep 15, 2:53 PM)29.88 "Hg (Sep 12, 5:53 PM)
Average80 °F81%30.01 "Hg
* Reported Sep 2 8:53 AM — Sep 17 8:53 AM, Naples, Weather by CustomWeather, © 2014

Note: Actual official high and low records may vary slightly from our data, if they occured in-between our weather recording intervals... More about our weather records

Advertising

Naples weather history for previous 24 hours

 ConditionsComfort  
Time TempWeatherWind HumidityBarometerVisibility
8:53 AM
Sep 17
80 °FSunny.No wind79%29.97 "Hg10 mi
7:53 AM79 °FPassing clouds.3 mph82%29.96 "Hg10 mi
6:53 AM78 °FPassing clouds.3 mph84%29.95 "Hg10 mi
5:53 AM78 °FClear.No wind84%29.93 "Hg10 mi
4:53 AM78 °FClear.No wind82%29.94 "Hg10 mi
3:53 AM78 °FPassing clouds.No wind79%29.95 "Hg10 mi
2:53 AM77 °FClear.No wind85%29.95 "Hg10 mi
1:53 AM77 °FClear.No wind85%29.98 "Hg10 mi
12:53 AM77 °FPassing clouds.3 mph85%30.00 "Hg10 mi
11:53 PM
Sep 16
78 °FPassing clouds.3 mph79%30.02 "Hg10 mi
10:53 PM78 °FMostly cloudy.7 mph79%30.02 "Hg10 mi
10:00 PM78 °FMostly cloudy.6 mph82%30.03 "Hg10 mi
8:53 PM78 °FPassing clouds.5 mph82%30.01 "Hg10 mi
7:53 PM81 °FScattered clouds.9 mph77%29.99 "Hg10 mi
6:53 PM86 °FPartly sunny.7 mph67%29.98 "Hg10 mi
5:53 PM86 °FOvercast.8 mph67%29.98 "Hg10 mi
4:53 PM87 °FBroken clouds.3 mph61%29.98 "Hg10 mi
3:53 PM86 °FThundershowers. Passing clouds.10 mph70%29.99 "Hg10 mi
2:53 PM88 °FThundershowers. Scattered clouds.10 mph63%30.01 "Hg10 mi
1:53 PM88 °FScattered clouds.13 mph65%30.03 "Hg10 mi
12:53 PM88 °FScattered clouds.9 mph63%30.05 "Hg10 mi
11:53 AM90 °FScattered clouds.5 mph52%30.06 "Hg10 mi
10:53 AM86 °FSunny.3 mph65%30.06 "Hg10 mi
Weather by CustomWeather, © 2014

See weather overviewHow to use our weather pages